Regional Weather Roundup
Issued by NWS Jackson, KY

Home | Current Version | Previous Version | Graphics & Text | Print | Product List | Glossary On
Versions: 1 2 3 4 5 6 7 8 9 10 11 12 13 14 15 16 17 18 19 20 21 22 23 24 25 26 27 28 29 30 31 32 33 34 35 36 37 38 39 40 41 42 43 44 45 46 47 48 49 50
000
ASUS43 KJKL 251505
RWRJKL

EAST KENTUCKY HOURLY WEATHER ROUNDUP
NATIONAL WEATHER SERVICE JACKSON KY
1000 AM EST SUN JAN 25 2015

NOTE: "FAIR" INDICATES FEW OR NO CLOUDS BELOW 12,000 FEET WITH
NO SIGNIFICANT WEATHER AND/OR OBSTRUCTIONS TO VISIBILITY.

* THESE REPORTS ARE NOT UNDER NWS QUALITY CONTROL AND MAY NOT
  REPORT WEATHER SUCH AS PRECIPITATION AND FOG.

KYZ079-080-083-085-087-088-110-112-115-119-120-251600
...EASTERN KENTUCKY...

CITY           SKY/WX    TMP DP  RH WIND       PRES   REMARKS
JACKSON        PTSUNNY   38  30  73 CALM      29.79R
LONDON         CLOUDY    40  29  64 S7        29.80S
SOMERSET*      CLOUDY    37  32  81 S8        29.80F WCI  31
MONTICELLO*    PTSUNNY   41  32  70 S12       29.82S
MIDDLESBORO*   PTSUNNY   39  31  72 CALM      29.85S
HARLAN APT*    MOSUNNY   37  32  81 E6        29.83S WCI  33
BLACK MTN*       N/A     27  27 100 SW17        N/A  WCI  14
PIKEVILLE APT* SUNNY     37  30  75 SE6       29.80R WCI  33
BIG SANDY*     CLOUDY    40  32  70 S6        29.79S
MOREHEAD APT*  CLOUDY    36  30  80 VRB6      29.79S WCI  31
$$

KYZ035-036-041-042-044-050-067-078-099-251600
...CENTRAL KENTUCKY...

CITY           SKY/WX    TMP DP  RH WIND       PRES   REMARKS
MT STERLING*   CLOUDY    36  32  87 SW13G18   29.77F WCI  27
FLEMING/MASON* CLOUDY    35  31  85 S8        29.76F WCI  29
DANVILLE*      CLOUDY    37  32  81 S13       29.76F WCI  29
RICHMOND*      CLOUDY    37  30  75 S12       29.76F WCI  30
LEXINGTON      CLOUDY    38  31  76 S12       29.74F WCI  30
FRANKFORT      CLOUDY    38  31  76 S9        29.73S WCI  31
$$

KYZ091>093-OHZ055-061-077-WVZ005-015-034-035-042-251600
...SOUTHERN OHIO/WEST VIRGINIA...

CITY           SKY/WX    TMP DP  RH WIND       PRES   REMARKS
COVINGTON      CLOUDY    39  31  72 S7        29.72S WCI  34
COLUMBUS       CLOUDY    36  30  79 S3        29.77R
DAYTON         LGT RAIN  36  32  85 CALM      29.74R FOG
WILMINGTON     CLOUDY    36  30  79 S7        29.74R WCI  30
HUNTINGTON     CLOUDY    35  31  85 S5        29.79R WCI  31
CHARLESTON     PTSUNNY   38  32  79 CALM      29.80S
PINEVILLE*     PTSUNNY   37  35  92 MISG      29.87S
BECKLEY        MOSUNNY   36  29  75 S7        29.80S WCI  30
BLUEFIELD      PTSUNNY   35  27  72 SW5       29.81F WCI  31
$$

VAZ002-007-008-TNZ017-027-036-066-071-251600
...SOUTHWEST VIRGINIA/EAST TENNESSEE...

CITY           SKY/WX    TMP DP  RH WIND       PRES   REMARKS
WISE*          MOSUNNY   36  28  75 SW7       29.81S WCI  30
JONESVILLE*    MOSUNNY   32  30  93 CALM      29.89S
ABINGDON*      SUNNY     38  31  77 CALM      29.86S
BRISTOL        PTSUNNY   35  30  82 CALM      29.88S
KNOXVILLE      MOSUNNY   42  32  67 W7        29.86F
OAK RIDGE      MOSUNNY   40  31  70 VRB3      29.89S
CROSSVILLE     MOSUNNY   39  31  72 VRB3      29.82S
NASHVILLE      CLOUDY    42  34  73 S10       29.77F
$$

...KEY TO REMARKS...
VSB - VISIBILITY IN MILES
WCI - WIND CHILL INDEX
HX  - HEAT INDEX

$$



USA.gov is the U.S. government's official web portal to all federal, state and local government web resources and services.